| time (UTC) | temp F | wind direction | speed knots | gust knots | rain 1hr in | rain 24hr in | rain mn in | humidity % | barometer mb |
| 20260504213113 | 76 | 191 | 0.9 | 5.2 | 0.00 | 0.09 | 0.09 | 55 | 1003.5 |
| 20260504211548 | 74 | 215 | 0.9 | 6.1 | 0.00 | 0.09 | 0.09 | 59 | 1003.8 |
| 20260504210047 | 74 | 217 | 0.0 | 6.1 | 0.00 | 0.09 | 0.09 | 60 | 1003.8 |
| 20260504204600 | 73 | 212 | 1.7 | 7.0 | 0.00 | 0.09 | 0.09 | 62 | 1003.9 |
| 20260504203043 | 71 | 207 | 1.7 | 7.8 | 0.00 | 0.09 | 0.09 | 67 | 1004.0 |
| 20260504201542 | 68 | 213 | 1.7 | 7.0 | 0.00 | 0.09 | 0.09 | 75 | 1004.4 |
| 20260504200044 | 66 | 210 | 0.9 | 5.2 | 0.01 | 0.09 | 0.09 | 81 | 1004.5 |
| 20260504194543 | 62 | 252 | 0.0 | 2.6 | 0.05 | 0.09 | 0.09 | 87 | 1004.0 |
| 20260504193038 | 60 | 127 | 0.9 | 3.5 | 0.09 | 0.09 | 0.09 | 88 | 1004.0 |
| 20260504191540 | 60 | 154 | 0.0 | 0.0 | 0.09 | 0.09 | 0.09 | 87 | 1005.9 |
| 20260504190038 | 61 | 139 | 0.0 | 1.7 | 0.08 | 0.08 | 0.08 | 88 | 1005.5 |
| 20260504184536 | 62 | 127 | 0.0 | 0.9 | 0.04 | 0.04 | 0.04 | 84 | 1006.3 |
| 20260504183033 | 66 | 269 | 0.0 | 2.6 | 0.00 | 0.00 | 0.00 | 70 | 1006.8 |
| 20260504181530 | 66 | 287 | 0.9 | 4.3 | 0.00 | 0.00 | 0.00 | 69 | 1006.7 |
| 20260504180030 | 66 | 207 | 0.0 | 2.6 | 0.00 | 0.00 | 0.00 | 70 | 1006.2 |
| 20260504174529 | 65 | 199 | 0.0 | 1.7 | 0.00 | 0.00 | 0.00 | 70 | 1006.1 |
| 20260504173030 | 66 | 217 | 0.0 | 1.7 | 0.00 | 0.00 | 0.00 | 71 | 1006.0 |
| 20260504171528 | 66 | 217 | 0.0 | 3.5 | 0.00 | 0.00 | 0.00 | 69 | 1006.2 |
| 20260504081537 | 60 | 91 | 0.0 | 0.0 | 0.00 | 0.00 | 0.00 | 72 | 1008.6 |
| 20260504044556 | 63 | 243 | 1.7 | 6.1 | 0.00 | 0.00 | 0.00 | 60 | 1008.1 |
| 20260504043059 | 62 | 206 | 0.9 | 3.5 | 0.00 | 0.00 | 0.00 | 61 | 1008.3 |
| 20260504041554 | 63 | 226 | 0.0 | 2.6 | 0.00 | 0.00 | 0.00 | 59 | 1009.0 |
| 20260504040054 | 63 | 214 | 0.0 | 2.6 | 0.00 | 0.00 | 0.00 | 58 | 1009.2 |
| 20260504034554 | 63 | 250 | 0.0 | 3.5 | 0.00 | 0.00 | 0.00 | 57 | 1009.3 |
| 20260504033056 | 64 | 267 | 0.0 | 3.5 | 0.00 | 0.00 | 0.00 | 56 | 1009.5 |
| 20260504031553 | 65 | 276 | 0.9 | 6.1 | 0.00 | 0.00 | 0.00 | 54 | 1009.5 |
| 20260504030052 | 65 | 293 | 0.0 | 4.3 | 0.00 | 0.00 | 0.00 | 53 | 1009.4 |
| 20260504024553 | 66 | 289 | 0.0 | 3.5 | 0.00 | 0.00 | 0.00 | 51 | 1009.4 |
| 20260504023051 | 66 | 174 | 0.0 | 6.1 | 0.00 | 0.00 | 0.00 | 50 | 1009.4 |
| 20260504021552 | 67 | 225 | 0.9 | 6.1 | 0.00 | 0.00 | 0.00 | 49 | 1009.2 |
| 20260504020127 | 67 | 213 | 0.0 | 3.5 | 0.00 | 0.00 | 0.00 | 49 | 1009.0 |
| 20260504014600 | 68 | 272 | 0.0 | 4.3 | 0.00 | 0.00 | 0.00 | 48 | 1009.0 |
| 20260504013059 | 68 | 213 | 0.0 | 4.3 | 0.00 | 0.00 | 0.00 | 47 | 1008.9 |
| 20260504011549 | 69 | 214 | 0.0 | 3.5 | 0.00 | 0.00 | 0.00 | 46 | 1008.8 |
| 20260504010048 | 70 | 217 | 0.9 | 4.3 | 0.00 | 0.00 | 0.00 | 45 | 1008.7 |
| 20260504004617 | 71 | 221 | 0.0 | 3.5 | 0.00 | 0.00 | 0.00 | 43 | 1008.8 |
| 20260504003052 | 72 | 215 | 0.0 | 3.5 | 0.00 | 0.00 | 0.00 | 41 | 1008.8 |
| 20260504001616 | 73 | 149 | 0.0 | 3.5 | 0.00 | 0.00 | 0.00 | 40 | 1008.8 |
| 20260504000046 | 74 | 214 | 0.0 | 3.5 | 0.00 | 0.00 | 0.00 | 38 | 1008.8 |
| 20260503234543 | 74 | 178 | 0.0 | 2.6 | 0.00 | 0.00 | 0.00 | 38 | 1009.1 |
| 20260503233043 | 75 | 266 | 0.9 | 7.8 | 0.00 | 0.00 | 0.00 | 37 | 1009.2 |
| 20260503231541 | 76 | 189 | 0.9 | 9.6 | 0.00 | 0.00 | 0.00 | 35 | 1009.2 |
| 20260503230056 | 76 | 207 | 1.7 | 10.4 | 0.00 | 0.00 | 0.00 | 35 | 1009.3 |
| 20260503224537 | 76 | 224 | 1.7 | 7.8 | 0.00 | 0.00 | 0.00 | 35 | 1009.5 |
| 20260503223036 | 76 | 347 | 3.5 | 13.0 | 0.00 | 0.00 | 0.00 | 35 | 1009.7 |
| 20260503221535 | 76 | 250 | 2.6 | 11.3 | 0.00 | 0.00 | 0.00 | 34 | 1009.7 |
| 20260503220042 | 76 | 271 | 4.3 | 9.6 | 0.00 | 0.00 | 0.00 | 35 | 1009.9 |
| 20260503214532 | 75 | 280 | 5.2 | 11.3 | 0.00 | 0.00 | 0.00 | 34 | 1010.0 |